カタログに戻る

ORBCOMM FM 107

運用中通信LEO
NORAD 40087·PAYLOAD·🇺🇸 United States

打ち上げ Jul 14, 2014 から Cape Canaveral Space Force Station

Loading…

次のパス (今後24時間)

TLE

最新Source: Space-Track

元期: Sep 14, 2026, 09:45 UTC

1 40087U 14040B   26257.40662706  .00000294  00000-0  98101-4 0  9999
2 40087  47.0059  30.3881 0001499 217.6960 142.3822 14.59015387647454

AllMySatでORBCOMM FM 107をリアルタイム追跡

Download on the App Store